{"data":{"norad_id":59659,"epoch":"2026-09-21T00:57:18.103968Z","epoch_age_seconds":121604,"freshness":"FRESH","line1":"1 59659U 24084F   26264.03979287 -.00000411  00000+0 -54172-5 0  9998","line2":"2 59659  43.0061  14.7354 0001869 270.3752  89.6885 15.27577497134291","mean_motion":15.27577497,"eccentricity":0.0001869,"inclination_deg":43.0061,"raan_deg":14.7354,"arg_perigee_deg":270.3752,"mean_anomaly_deg":89.6885,"bstar":-5.4172e-6,"rev_number":13429,"period_min":94.266903173686,"perigee_km":481.77423385019,"apogee_km":484.33894801448,"semimajor_km":6861.1935909323,"source":"CELESTRAK","updated_at":"2026-09-22T09:00:49.025533Z"}}